Warsaw, IN

10:24 PM EST on February 10, 2016 (GMT -0500)
Warsaw Municipal

Weather History for KASW - April, 2014

Change the Weather History Date:

Sunday, April 13, 2014

  Actual Average Record
Temperature  
Mean Temperature 63 °F -  
Max Temperature 71 °F 60 °F 82 °F (1977)
Min Temperature 55 °F 39 °F 21 °F (1950)
Degree Days  
Heating Degree Days 2    
Growing Degree Days 13 (Base 50)    
Moisture  
Dew Point 54 °F    
Average Humidity 65    
Maximum Humidity 82    
Minimum Humidity 53    
Precipitation  
Precipitation 0.00 in - - ()
Sea Level Pressure  
Sea Level Pressure 29.75 in    
Wind  
Wind Speed 6 mph (SSW)    
Max Wind Speed 18 mph    
Max Gust Speed 26 mph    
Visibility 10 miles    
Events Rain    
Averages and records for this station are not official NWS values.
T = Trace of Precipitation, MM = Missing Value Source: NWS Daily Summary

Daily Weather History Graph

Daily Weather History Graph

Search for Another Location

Airport or City:

Trip Planner

Search our weather history database for the weather conditions in past years. The results will help you decide how hot, cold, wet, or windy it might be!

Date:

Astronomy

Apr. 13, 2014 Rise Set
Actual Time 7:06 AM EDT 8:21 PM EDT
Civil Twilight 6:38 AM EDT 8:49 PM EDT
Nautical Twilight 6:04 AM EDT 9:24 PM EDT
Astronomical Twilight 5:28 AM EDT 10:00 PM EDT
Moon 6:57 PM EDT (4/13) 6:06 AM EDT (4/13)
Length of Visible Light 14h 11m
Length of Day
13h 14m
Waxing Gibbous, 97% of the Moon is Illuminated
Apr 13
Waxing Gibbous
Apr 15
Full
Apr 22
Last Quarter
Apr 29
New
May 6
First Quarter

Hourly Weather History & Observations

Time (EDT) Temp. Dew Point Humidity Pressure Visibility Wind Dir Wind Speed Gust Speed Precip Events Conditions
12:15 AM 62.6 °F 51.8 °F 68% 29.79 in 10.0 mi SSE 4.6 mph - N/A   Clear
12:35 AM 62.6 °F 51.8 °F 68% 29.79 in 10.0 mi Calm Calm - N/A   Clear
12:55 AM 62.6 °F 51.8 °F 68% 29.78 in 10.0 mi South 3.5 mph - N/A   Clear
1:15 AM 62.6 °F 51.8 °F 68% 29.78 in 10.0 mi SSE 3.5 mph - N/A   Clear
1:35 AM 62.6 °F 51.8 °F 68% 29.79 in 10.0 mi SSE 3.5 mph - N/A   Clear
1:55 AM 62.6 °F 51.8 °F 68% 29.79 in 10.0 mi Calm Calm - N/A   Scattered Clouds
2:15 AM 60.8 °F 51.8 °F 72% 29.79 in 10.0 mi SSE 3.5 mph - N/A   Mostly Cloudy
2:35 AM 62.6 °F 51.8 °F 68% 29.79 in 10.0 mi SSE 3.5 mph - N/A   Overcast
2:55 AM 60.8 °F 50.0 °F 68% 29.79 in 10.0 mi SE 3.5 mph - N/A   Scattered Clouds
3:15 AM 59.0 °F 50.0 °F 72% 29.79 in 10.0 mi ESE 3.5 mph - N/A   Scattered Clouds
3:35 AM 57.2 °F 50.0 °F 77% 29.79 in 10.0 mi SE 3.5 mph - N/A   Scattered Clouds
3:55 AM 55.4 °F 50.0 °F 82% 29.79 in 10.0 mi SSE 3.5 mph - N/A   Clear
4:15 AM 59.0 °F 50.0 °F 72% 29.79 in 10.0 mi Calm Calm - N/A   Clear
4:35 AM 59.0 °F 51.8 °F 77% 29.78 in 10.0 mi South 4.6 mph - N/A   Clear
4:55 AM 59.0 °F 51.8 °F 77% 29.77 in 10.0 mi South 3.5 mph - N/A   Clear
5:15 AM 59.0 °F 51.8 °F 77% 29.76 in 10.0 mi SSW 5.8 mph - N/A   Clear
5:35 AM 60.8 °F 51.8 °F 72% 29.76 in 10.0 mi SSW 5.8 mph - N/A   Clear
5:55 AM 60.8 °F 51.8 °F 72% 29.77 in 10.0 mi SW 6.9 mph - N/A   Clear
6:15 AM 60.8 °F 51.8 °F 72% 29.76 in 10.0 mi SW 6.9 mph - N/A   Scattered Clouds
6:35 AM 60.8 °F 53.6 °F 77% 29.76 in 10.0 mi SSW 6.9 mph - N/A   Scattered Clouds
6:55 AM 60.8 °F 53.6 °F 77% 29.76 in 10.0 mi SSW 8.1 mph - N/A   Scattered Clouds
7:15 AM 60.8 °F 53.6 °F 77% 29.76 in 10.0 mi SSW 4.6 mph - N/A   Scattered Clouds
7:35 AM 60.8 °F 53.6 °F 77% 29.77 in 10.0 mi SSW 5.8 mph - N/A   Scattered Clouds
7:55 AM 60.8 °F 53.6 °F 77% 29.76 in 10.0 mi South 10.4 mph - N/A   Clear
8:15 AM 60.8 °F 53.6 °F 77% 29.77 in 10.0 mi SSW 9.2 mph - N/A   Clear
8:35 AM 62.6 °F 53.6 °F 72% 29.78 in 10.0 mi SSW 10.4 mph 16.1 mph N/A   Clear
8:55 AM 62.6 °F 53.6 °F 72% 29.79 in 10.0 mi SSW 10.4 mph 17.3 mph N/A   Clear
9:15 AM 64.4 °F 53.6 °F 68% 29.79 in 10.0 mi SW 11.5 mph 17.3 mph N/A   Mostly Cloudy
9:35 AM 64.4 °F 53.6 °F 68% 29.79 in 10.0 mi SW 9.2 mph 21.9 mph N/A   Mostly Cloudy
9:55 AM 64.4 °F 53.6 °F 68% 29.79 in 10.0 mi SW 11.5 mph 19.6 mph N/A   Mostly Cloudy
10:15 AM 66.2 °F 55.4 °F 68% 29.79 in 10.0 mi SW 12.7 mph 21.9 mph N/A   Scattered Clouds
10:55 AM 68.0 °F 55.4 °F 64% 29.79 in 10.0 mi SW 11.5 mph 21.9 mph N/A   Clear
11:15 AM 69.8 °F 55.4 °F 60% 29.79 in 10.0 mi SSW 15.0 mph 19.6 mph N/A   Mostly Cloudy
11:35 AM 68.0 °F 55.4 °F 64% 29.79 in 10.0 mi SW 11.5 mph 23.0 mph N/A   Overcast
11:55 AM 69.8 °F 55.4 °F 60% 29.79 in 10.0 mi SW 18.4 mph 26.5 mph N/A   Mostly Cloudy
12:15 PM 69.8 °F 55.4 °F 60% 29.79 in 10.0 mi WSW 16.1 mph 23.0 mph N/A   Mostly Cloudy
12:35 PM 71.6 °F 55.4 °F 57% 29.79 in 10.0 mi WSW 17.3 mph 26.5 mph N/A   Mostly Cloudy
12:55 PM 71.6 °F 55.4 °F 57% 29.79 in 10.0 mi WSW 15.0 mph 20.7 mph N/A   Mostly Cloudy
1:15 PM 69.8 °F 55.4 °F 60% 29.80 in 10.0 mi SSW 13.8 mph 19.6 mph N/A   Overcast
1:35 PM 71.6 °F 55.4 °F 57% 29.79 in 10.0 mi SW 12.7 mph 23.0 mph N/A   Overcast
2:15 PM 69.8 °F 55.4 °F 60% 29.80 in 10.0 mi SW 15.0 mph 23.0 mph N/A   Overcast
2:35 PM 69.8 °F 53.6 °F 56% 29.79 in 10.0 mi SW 10.4 mph 23.0 mph N/A   Mostly Cloudy
2:55 PM 69.8 °F 53.6 °F 56% 29.79 in 10.0 mi SW 6.9 mph - N/A   Overcast
3:15 PM 69.8 °F 53.6 °F 56% 29.76 in 10.0 mi SSW 10.4 mph 18.4 mph N/A   Scattered Clouds
3:35 PM 69.8 °F 55.4 °F 60% 29.76 in 10.0 mi SW 10.4 mph - N/A   Mostly Cloudy
3:55 PM 68.0 °F 55.4 °F 64% 29.76 in 10.0 mi SSW 5.8 mph 16.1 mph N/A   Overcast
4:15 PM 69.8 °F 55.4 °F 60% 29.75 in 10.0 mi SSW 6.9 mph - N/A   Overcast
4:35 PM 71.6 °F 55.4 °F 57% 29.74 in 10.0 mi SW 4.6 mph 16.1 mph N/A   Mostly Cloudy
4:55 PM 71.6 °F 55.4 °F 57% 29.74 in 10.0 mi SSW 11.5 mph 20.7 mph N/A   Mostly Cloudy
5:15 PM 71.6 °F 53.6 °F 53% 29.73 in 10.0 mi SW 11.5 mph 24.2 mph N/A   Mostly Cloudy
5:35 PM 71.6 °F 55.4 °F 57% 29.73 in 10.0 mi SSW 12.7 mph 19.6 mph N/A   Overcast
5:55 PM 71.6 °F 55.4 °F 57% 29.72 in 10.0 mi South 6.9 mph - N/A   Overcast
6:15 PM 71.6 °F 55.4 °F 57% 29.71 in 10.0 mi South 9.2 mph - N/A   Overcast
6:35 PM 71.6 °F 53.6 °F 53% 29.70 in 10.0 mi SSW 5.8 mph - N/A   Overcast
6:55 PM 71.6 °F 53.6 °F 53% 29.69 in 10.0 mi South 5.8 mph - N/A   Overcast
7:15 PM 69.8 °F 53.6 °F 56% 29.68 in 10.0 mi South 6.9 mph - N/A   Overcast
7:35 PM 69.8 °F 53.6 °F 56% 29.67 in 10.0 mi South 5.8 mph - N/A   Overcast
7:55 PM 69.8 °F 53.6 °F 56% 29.67 in 10.0 mi SSW 4.6 mph - N/A   Overcast
8:15 PM 69.8 °F 55.4 °F 60% 29.67 in 10.0 mi WSW 4.6 mph - N/A   Overcast
8:35 PM 68.0 °F 55.4 °F 64% 29.66 in 10.0 mi WSW 6.9 mph - N/A   Overcast
8:55 PM 66.2 °F 55.4 °F 68% 29.65 in 10.0 mi SW 3.5 mph - N/A   Scattered Clouds
9:15 PM 66.2 °F 55.4 °F 68% 29.66 in 10.0 mi SSW 3.5 mph - N/A   Mostly Cloudy
9:35 PM 68.0 °F 55.4 °F 64% 29.67 in 10.0 mi SSW 8.1 mph - N/A   Mostly Cloudy
9:55 PM 68.0 °F 55.4 °F 64% 29.66 in 10.0 mi SSW 10.4 mph 17.3 mph N/A   Mostly Cloudy
10:15 PM 68.0 °F 55.4 °F 64% 29.64 in 10.0 mi SSW 6.9 mph 20.7 mph N/A   Overcast
10:35 PM 68.0 °F 53.6 °F 60% 29.63 in 10.0 mi SSW 11.5 mph 18.4 mph N/A   Overcast
10:55 PM 69.8 °F 53.6 °F 56% 29.62 in 10.0 mi SSW 9.2 mph 20.7 mph N/A   Overcast
11:15 PM 68.0 °F 55.4 °F 64% 29.61 in 10.0 mi SSW 5.8 mph - N/A Rain Light Rain
11:35 PM 68.0 °F 55.4 °F 64% 29.61 in 10.0 mi SSW 4.6 mph - N/A   Overcast
11:55 PM 68.0 °F 55.4 °F 64% 29.61 in 10.0 mi WSW 6.9 mph - N/A Rain Light Rain